When you browse on this site, cookies collect data to enhance your experience and personalize the content and advertising you see.
Visit our Privacy Policy to learn more. By continuing to use the site, you agree to this use of cookies and data.
  • In Belgien
  • Länderverzeichnis
  • Für 7 Tage
  • Wassertemperatur
  • Satellitenkarten
  • Wetterkarte
  • Widgets
  • user-avatar
    Anmelden

    Stündliche Wetter Maun

    Heute, 19 Juli, Freitag

    Zeit Temperatur Niederschläge Wind Luftdruck Luftfeuchtigkeit
    00:00 +15°C° 0 mm 2 m/S 684 mmHg 28%
    01:00 +14°C° 0 mm 1 m/S 684 mmHg 28%
    02:00 +14°C° 0 mm 1 m/S 684 mmHg 30%
    03:00 +13°C° 0 mm 1 m/S 684 mmHg 31%
    04:00 +12°C° 0 mm 1 m/S 683 mmHg 32%
    05:00 +11°C° 0 mm 1 m/S 683 mmHg 34%
    06:00 +12°C° 0 mm 1 m/S 683 mmHg 33%
    07:00 +13°C° 0 mm 1 m/S 684 mmHg 32%
    08:00 +14°C° 0 mm 1 m/S 685 mmHg 30%
    09:00 +19°C° 0 mm 1 m/S 686 mmHg 25%
    10:00 +22°C° 0 mm 1 m/S 686 mmHg 20%
    11:00 +26°C° 0 mm 2 m/S 687 mmHg 15%
    12:00 +28°C° 0 mm 1 m/S 686 mmHg 14%
    13:00 +29°C° 0 mm 1 m/S 686 mmHg 12%
    14:00 +31°C° 0 mm 1 m/S 685 mmHg 10%
    15:00 +30°C° 0 mm 1 m/S 685 mmHg 11%
    16:00 +29°C° 0 mm 2 m/S 684 mmHg 11%
    17:00 +29°C° 0 mm 2 m/S 684 mmHg 11%
    18:00 +26°C° 0 mm 2 m/S 683 mmHg 14%
    19:00 +23°C° 0 mm 2 m/S 683 mmHg 17%
    20:00 +19°C° 0 mm 1 m/S 683 mmHg 20%
    21:00 +19°C° 0 mm 1 m/S 683 mmHg 21%
    22:00 +18°C° 0 mm 1 m/S 683 mmHg 22%
    23:00 +16°C° 0 mm 1 m/S 683 mmHg 23%

    Morgen, 20 Juli, Samstag

    Zeit Temperatur Niederschläge Wind Luftdruck Luftfeuchtigkeit
    00:00 +15°C° 0 mm 1 m/S 683 mmHg 24%
    01:00 +14°C° 0 mm 1 m/S 682 mmHg 25%
    02:00 +14°C° 0 mm 1 m/S 682 mmHg 26%
    03:00 +13°C° 0 mm 1 m/S 682 mmHg 26%
    04:00 +13°C° 0 mm 1 m/S 682 mmHg 27%
    05:00 +12°C° 0 mm 1 m/S 682 mmHg 28%
    06:00 +13°C° 0 mm 1 m/S 683 mmHg 27%
    07:00 +13°C° 0 mm 1 m/S 683 mmHg 26%
    08:00 +14°C° 0 mm 2 m/S 684 mmHg 25%
    09:00 +18°C° 0 mm 2 m/S 685 mmHg 20%
    10:00 +21°C° 0 mm 2 m/S 686 mmHg 15%
    11:00 +26°C° 0 mm 2 m/S 687 mmHg 11%
    12:00 +28°C° 0 mm 2 m/S 686 mmHg 9%
    13:00 +29°C° 0 mm 2 m/S 685 mmHg 8%
    14:00 +31°C° 0 mm 2 m/S 685 mmHg 7%
    15:00 +30°C° 0 mm 2 m/S 684 mmHg 7%
    16:00 +30°C° 0 mm 2 m/S 684 mmHg 7%
    17:00 +30°C° 0 mm 2 m/S 684 mmHg 7%
    18:00 +26°C° 0 mm 2 m/S 683 mmHg 9%
    19:00 +23°C° 0 mm 2 m/S 683 mmHg 11%
    20:00 +19°C° 0 mm 1 m/S 683 mmHg 13%
    21:00 +17°C° 0 mm 2 m/S 683 mmHg 14%
    22:00 +16°C° 0 mm 2 m/S 683 mmHg 15%
    23:00 +15°C° 0 mm 2 m/S 684 mmHg 16%

    übermorgen, 21 Juli, Sonntag

    Zeit Temperatur Niederschläge Wind Luftdruck Luftfeuchtigkeit
    00:00 +14°C° 0 mm 2 m/S 683 mmHg 16%
    01:00 +13°C° 0 mm 2 m/S 683 mmHg 17%
    02:00 +13°C° 0 mm 2 m/S 683 mmHg 18%
    03:00 +12°C° 0 mm 2 m/S 683 mmHg 19%
    04:00 +12°C° 0 mm 2 m/S 683 mmHg 21%
    05:00 +10°C° 0 mm 3 m/S 683 mmHg 22%
    06:00 +11°C° 0 mm 3 m/S 684 mmHg 23%
    07:00 +11°C° 0 mm 3 m/S 684 mmHg 25%
    08:00 +11°C° 0 mm 3 m/S 685 mmHg 26%
    09:00 +15°C° 0 mm 4 m/S 686 mmHg 21%
    10:00 +20°C° 0 mm 4 m/S 686 mmHg 17%
    11:00 +25°C° 0 mm 5 m/S 687 mmHg 12%
    12:00 +27°C° 0 mm 4 m/S 687 mmHg 11%
    13:00 +28°C° 0 mm 4 m/S 686 mmHg 9%
    14:00 +30°C° 0 mm 3 m/S 686 mmHg 8%
    15:00 +29°C° 0 mm 3 m/S 685 mmHg 8%
    16:00 +29°C° 0 mm 3 m/S 685 mmHg 9%
    17:00 +28°C° 0 mm 3 m/S 684 mmHg 9%
    18:00 +25°C° 0 mm 3 m/S 684 mmHg 12%
    19:00 +20°C° 0 mm 3 m/S 684 mmHg 14%
    20:00 +17°C° 0 mm 3 m/S 684 mmHg 17%
    21:00 +16°C° 0 mm 3 m/S 684 mmHg 20%
    22:00 +14°C° 0 mm 3 m/S 685 mmHg 24%
    23:00 +13°C° 0 mm 3 m/S 685 mmHg 27%

    22 Juli, Montag

    Zeit Temperatur Niederschläge Wind Luftdruck Luftfeuchtigkeit
    00:00 +12°C° 0 mm 3 m/S 685 mmHg 40%
    01:00 +11°C° 0 mm 3 m/S 684 mmHg 54%
    02:00 +11°C° 0 mm 3 m/S 684 mmHg 67%
    03:00 +10°C° 0 mm 3 m/S 684 mmHg 73%
    04:00 +9°C° 0 mm 3 m/S 684 mmHg 78%
    05:00 +8°C° 0 mm 3 m/S 684 mmHg 84%
    06:00 +9°C° 0 mm 3 m/S 684 mmHg 82%
    07:00 +8°C° 0 mm 4 m/S 685 mmHg 80%
    08:00 +8°C° 0 mm 4 m/S 685 mmHg 79%
    09:00 +13°C° 0 mm 4 m/S 686 mmHg 64%
    10:00 +18°C° 0 mm 4 m/S 686 mmHg 50%
    11:00 +22°C° 0 mm 3 m/S 687 mmHg 36%
    12:00 +25°C° 0 mm 3 m/S 686 mmHg 30%
    13:00 +27°C° 0 mm 2 m/S 686 mmHg 23%
    14:00 +29°C° 0 mm 2 m/S 685 mmHg 17%
    15:00 +29°C° 0 mm 2 m/S 684 mmHg 16%
    16:00 +29°C° 0 mm 2 m/S 684 mmHg 15%
    17:00 +29°C° 0 mm 2 m/S 683 mmHg 15%
    18:00 +26°C° 0 mm 2 m/S 683 mmHg 19%
    19:00 +23°C° 0 mm 2 m/S 683 mmHg 23%
    20:00 +18°C° 0 mm 2 m/S 683 mmHg 27%
    21:00 +17°C° 0 mm 2 m/S 683 mmHg 31%
    22:00 +16°C° 0 mm 2 m/S 683 mmHg 34%
    23:00 +15°C° 0 mm 2 m/S 683 mmHg 38%

    23 Juli, Dienstag

    Zeit Temperatur Niederschläge Wind Luftdruck Luftfeuchtigkeit
    00:00 +15°C° 0 mm 2 m/S 683 mmHg 40%
    01:00 +14°C° 0 mm 2 m/S 682 mmHg 42%
    02:00 +13°C° 0 mm 2 m/S 682 mmHg 45%
    03:00 +13°C° 0 mm 2 m/S 682 mmHg 48%
    04:00 +12°C° 0 mm 2 m/S 682 mmHg 51%
    05:00 +12°C° 0 mm 2 m/S 682 mmHg 54%
    06:00 +12°C° 0 mm 2 m/S 682 mmHg 54%
    07:00 +13°C° 0 mm 2 m/S 683 mmHg 53%
    08:00 +13°C° 0 mm 2 m/S 683 mmHg 53%
    09:00 +17°C° 0 mm 2 m/S 684 mmHg 43%
    10:00 +21°C° 0 mm 3 m/S 685 mmHg 33%
    11:00 +27°C° 0 mm 3 m/S 685 mmHg 23%
    12:00 +28°C° 0 mm 3 m/S 685 mmHg 20%
    13:00 +30°C° 0 mm 2 m/S 684 mmHg 16%
    14:00 +32°C° 0 mm 2 m/S 683 mmHg 13%
    15:00 +31°C° 0 mm 1 m/S 683 mmHg 13%
    16:00 +31°C° 0 mm 1 m/S 682 mmHg 12%
    17:00 +31°C° 0 mm 1 m/S 682 mmHg 12%
    18:00 +27°C° 0 mm 1 m/S 682 mmHg 16%
    19:00 +24°C° 0 mm 1 m/S 681 mmHg 19%
    20:00 +20°C° 0 mm 2 m/S 681 mmHg 22%
    21:00 +20°C° 0 mm 1 m/S 681 mmHg 24%
    22:00 +19°C° 0 mm 1 m/S 681 mmHg 25%
    23:00 +18°C° 0 mm 1 m/S 681 mmHg 27%

    24 Juli, Mittwoch

    Zeit Temperatur Niederschläge Wind Luftdruck Luftfeuchtigkeit
    00:00 +16°C° 0 mm 1 m/S 681 mmHg 27%
    01:00 +16°C° 0 mm 1 m/S 681 mmHg 28%
    02:00 +16°C° 0 mm 1 m/S 681 mmHg 28%
    03:00 +15°C° 0 mm 1 m/S 681 mmHg 30%
    04:00 +14°C° 0 mm 2 m/S 681 mmHg 31%
    05:00 +13°C° 0 mm 2 m/S 681 mmHg 33%
    06:00 +14°C° 0 mm 2 m/S 682 mmHg 32%
    07:00 +14°C° 0 mm 2 m/S 683 mmHg 32%
    08:00 +14°C° 0 mm 2 m/S 683 mmHg 32%
    09:00 +18°C° 0 mm 3 m/S 684 mmHg 25%
    10:00 +21°C° 0 mm 4 m/S 685 mmHg 18%
    11:00 +25°C° 0 mm 5 m/S 686 mmHg 11%
    12:00 +27°C° 0 mm 5 m/S 686 mmHg 11%
    13:00 +28°C° 0 mm 5 m/S 685 mmHg 11%
    14:00 +29°C° 0 mm 5 m/S 685 mmHg 10%
    15:00 +28°C° 0 mm 4 m/S 684 mmHg 11%
    16:00 +28°C° 0 mm 4 m/S 684 mmHg 11%
    17:00 +28°C° 0 mm 4 m/S 684 mmHg 12%
    18:00 +25°C° 0 mm 4 m/S 684 mmHg 16%
    19:00 +21°C° 0 mm 4 m/S 684 mmHg 21%
    20:00 +17°C° 0 mm 3 m/S 684 mmHg 26%
    21:00 +16°C° 0 mm 3 m/S 684 mmHg 28%
    22:00 +14°C° 0 mm 3 m/S 684 mmHg 31%
    23:00 +13°C° 0 mm 3 m/S 684 mmHg 33%
    Mehr zeigen